OPS 4682 DEB, 55114

Orbit data source: Space-Track

OPS 4682 DEB, 55114 is space debris in LEO originally from a launch on Sat, 03 Apr 1965 UTC launched from the Air Force Western Test Range (AFWTR). Debris objects in space refer to the collection of defunct objects orbiting the Earth. Examples of debris include non-operational satellites, rocket bodies, and fragments generated from explosions, collisions, or faulty payload assembly.

Loading next visibility...
Identifier
55114, 1965-027HD
Orbit
LEO
Country
Flag of USUS
Related business
Manufacturer
Unknown
Mission
Spacecraft
Bus & Motor
Unknown
Mass
Unknown
Launch date (UTC)
1965-04-03 (61 years ago)
Launch vehicle
Unknown
Launch site
Air Force Western Test Range (AFWTR)
Object type
Payload
Rocket body
Debris
Shape & HBR
Unknown shape, 1.1 m
Radar Cross Section
Medium (>0.1 m² and <1 m²)

Expand to show TLE details & history
Last TLE update: 3 days ago

TLE from 3 days ago
0 OPS 4682 DEB
1 55114U 65027HD  26252.30366442 -.00000180  00000-0 -64528-3 0  9990
2 55114  90.2726  20.1914 0031889 227.0972 132.7471 12.97423180558795
Epoch: 2026-09-09T07:17Z
TLE epoch observation values (Epoch: 2026-09-09T07:17:16.605Z)
Latitude
-0.00006°
Longitude
-77.48544°
Altitude
1,291.683 km
Speed
7.203 km/s
True Right ascension
01h 20m 45s
True Declination
0° 00' 00"
Sunlit
Object was in full shadow at epoch
Visualization orbit readout
Latitude
Unknown
Longitude
Unknown
Altitude
Unknown
Speed
Unknown
Apparent Right ascension
Unknown
Apparent Declination
Unknown
Sunlit
N/A
Visualization observer readout
Local Sidereal Time
15:35:54
Azimuth
Unknown
Elevation
Unknown
Doppler factor
Unknown
Orbital elements
Apogee altitude
1,293.717 km
Perigee altitude
1,244.943 km
Semi-major axis
7,647.467 km
Eccentricity
0.00319
Inclination
90.2726°
RAAN
20.1914°
Arg. of periapsis
227.0972°
True anomaly
133.01472°
Mean anomaly
132.7471°
Eccentric anomaly
132.88098°
Mean motion
3.24539 °/min
Orbital period
110.93 mins
BSTAR
-0.00064528
Loading maneuver chart data...
Computing Atmospheric mass density...
Loading historical data...
Loading historical data...
Loading historical data...
Loading historical data...
Loading historical data...
Loading historical data...
Loading historical data...

Documentation

Showing up to 5 results
|